This is the latest recevied weather packets stored in our database for station/object JA1RBY-13. If no packets are shown the sender has not sent any weather packets the latest 10 day(s).
| Time | Temp. | Humidity | Pressure | Rain* | Wind** | Luminosity | Snow |
|---|---|---|---|---|---|---|---|
| 1777630365 | 17.22° C | 50% | 992.7 hPa | 0 mm | - | - | - |
| 1777628564 | 18.33° C | 54% | 992.9 hPa | 0 mm | - | - | - |
| 1777627665 | 18.89° C | 60% | 993.2 hPa | 0 mm | - | - | - |
| 1777626764 | 18.89° C | 63% | 993.3 hPa | 0 mm | - | - | - |
| 1777625865 | 19.44° C | 65% | 993.4 hPa | 0 mm | - | - | - |
| 1777624965 | 19.44° C | 66% | 993.3 hPa | 0 mm | - | - | - |
| 1777621189 | 19.44° C | 69% | 994.3 hPa | 0 mm | - | - | - |
| 1777619390 | 19.44° C | 68% | 995 hPa | 0 mm | - | - | - |
| 1777617591 | 20° C | 67% | 995.5 hPa | 0 mm | - | - | - |
| 1777616689 | 19.44° C | 68% | 996 hPa | 0 mm | - | - | - |
| 1777614889 | 19.44° C | 67% | 996.4 hPa | 0 mm | - | - | - |
| 1777613989 | 19.44° C | 69% | 996.9 hPa | 0 mm | - | - | - |
| 1777613090 | 18.89° C | 70% | 997.3 hPa | 0 mm | - | - | - |
| 1777611289 | 17.22° C | 76% | 998.1 hPa | 0 mm | - | - | - |
| 1777610390 | 17.22° C | 84% | 998.8 hPa | 0.25 mm | - | - | - |
| 1777609490 | 15.56° C | 88% | 998.9 hPa | 0.76 mm | - | - | - |
| 1777608590 | 15.56° C | 88% | 999.6 hPa | 1.02 mm | - | - | - |
| 1777607690 | 15° C | 88% | 1000.1 hPa | 1.27 mm | - | - | - |
| 1777606790 | 15° C | 89% | 1000.4 hPa | 1.02 mm | - | - | - |
| 1777605889 | 15° C | 88% | 1000.8 hPa | 1.27 mm | - | - | - |
| 1777604990 | 13.89° C | 88% | 1001.5 hPa | 2.03 mm | - | - | - |
| 1777604090 | 13.89° C | 88% | 1001.5 hPa | 2.03 mm | - | - | - |
| 1777603190 | 13.33° C | 87% | 1002.2 hPa | 2.03 mm | - | - | - |
| 1777602290 | 13.33° C | 87% | 1002.8 hPa | 2.54 mm | - | - | - |
| 1777601390 | 13.33° C | 87% | 1003.3 hPa | 3.3 mm | - | - | - |
* Rain latest hour (hover to see other rain measurements)
** Current wind speed in m/s (hover to see current wind gust speed)